Hourly Weather Roundup
Issued by NWS Central Illinois

Home | Current Version | Previous Version | Text Only | Print | Product List | Glossary On
Versions: 1 2 3 4 5 6 7 8 9 10 11 12 13 14 15 16 17 18 19 20 21 22 23 24 25 26 27 28 29 30 31 32 33 34 35 36 37 38 39 40 41 42 43 44 45 46 47 48 49 50
000
NZUS43 KILX 200310
HWRILX

Area Weather Roundup
National Weather Service Lincoln IL
900 PM CST FRI JAN 19 2018

NOTE:  "FAIR" indicates few or no clouds below 12,000 feet, with
       no sigificant weather and/or obstructions to visibility.


CITY           SKY/WX    TMP DP  RH WIND       PRES   REMARKS
Bloomington    FAIR      36  28  73 S22       29.83F WCI  25
Champaign      FAIR      33  27  78 S16       29.89F WCI  23
Danville       FAIR      33  24  68 S22G31    29.87F WCI  21
Decatur        FAIR      36  28  73 S20G26    29.89S WCI  25
Effingham      FAIR      35  26  69 S9        29.98S WCI  28
Flora          FAIR      36  25  66 S14       30.00S WCI  27
Galesburg      FAIR      41  30  66 S14       29.80R WCI  33
Jacksonville   CLOUDY    44  24  45 S15       29.85S
Lacon          FAIR      42  26  52 SW12G18   29.78S
Lawrenceville  FAIR      32  21  64 S13       30.02F WCI  22
Litchfield     CLOUDY    33  28  82 S17       29.92S WCI  23
$$


CITY           SKY/WX    TMP DP  RH WIND       PRES   REMARKS
Lincoln        FAIR      37  30  75 S14       29.86S WCI  28
Macomb         CLOUDY    42  28  57 SW15G21   29.82S WCI  34
Mattoon        FAIR      34  25  69 S13       29.92F WCI  25
Mt Carmel AP   FAIR      33  20  59 S8        30.02F WCI  26
Olney-Noble AP FAIR      34  20  57 S8        30.00F WCI  27
Paris AP       FAIR      34  25  69 S18G26    29.95S WCI  23
Peoria         FAIR      38  28  67 S14       29.81S WCI  30
Pontiac        FAIR      38  31  74 S22G28    29.81S WCI  28
Rantoul        FAIR      36  30  79 S10       29.88F WCI  28
Robinson       FAIR      33  22  62 S10       30.01R WCI  25
Springfield    FAIR      38  27  64 S12       29.87S WCI  30
Taylorville    FAIR      35  27  74 S17G26    29.90S WCI  25
$$

...REGIONAL REPORTS...


CITY           SKY/WX    TMP DP  RH WIND       PRES   REMARKS
Chicago O`Hare CLOUDY    40  28  62 SW20G32   29.72R WCI  30
Kankakee       FAIR     N/A N/A N/A SW17G25   29.84R
Moline         FAIR      44  28  53 SW15G24   29.74R
Mount Sterling CLOUDY    44  26  49 SW16      29.83R
Mount Vernon   FAIR      34  24  67 SW14      30.01S WCI  25
Pittsfield     PTCLDY    46  26  47 S14       29.86S
Quincy         CLOUDY    44  26  49 S16       29.83R
Rockford       CLOUDY    41  27  57 SW13      29.75R WCI  34
$$


CITY           SKY/WX    TMP DP  RH WIND       PRES   REMARKS
Burlington     CLOUDY    40  28  62 SW15      29.78R WCI  32
Cedar Rapids   FAIR      39  28  64 SW9       29.73R WCI  33
Des Moines     MOCLDY    41  28  60 SW14      29.75R WCI  33
Kirksville     CLOUDY    44  30  57 SW12      29.81R
Ottumwa        CLOUDY    42  27  55 SW16G26   29.75R WCI  34
St Louis       CLOUDY    43  24  47 S9        29.92S
$$


CITY           SKY/WX    TMP DP  RH WIND       PRES   REMARKS
Terre Haute    FAIR      34  20  56 S16       29.97F WCI  24
Evansville     FAIR      37  21  52 S10       30.05F WCI  30
Indianapolis   MOCLDY    35  22  58 S15       29.96F WCI  25
Lafayette      FAIR      34  23  64 SW10G18   29.91S WCI  26
Madison        MOCLDY    38  27  64 SW7       29.67R WCI  33
Milwaukee      FAIR      42  27  55 SW17G26   29.67R WCI  34
$$






USA.gov is the U.S. government's official web portal to all federal, state and local government web resources and services.